This is the latest recevied weather packets stored in our database for station/object W4NRG-1. If no packets are shown the sender has not sent any weather packets the latest 1 day(s).
| Time | Temp. | Humidity | Pressure | Rain* | Wind** | Luminosity | Snow |
|---|---|---|---|---|---|---|---|
| 1777971138 | 16.67° C | 68% | 1013.7 hPa | 0 mm | 0 m/s | - | - |
| 1777970835 | 16.67° C | 68% | 1013.9 hPa | 0 mm | 0.45 m/s, 338° | - | - |
| 1777970534 | 16.67° C | 67% | 1013.6 hPa | 0 mm | 0.45 m/s, 313° | - | - |
| 1777970230 | 16.67° C | 67% | 1013.5 hPa | 0 mm | 1.34 m/s, 317° | - | - |
| 1777969927 | 16.67° C | 67% | 1013.4 hPa | 0 mm | 0.45 m/s, 19° | - | - |
| 1777969623 | 16.67° C | 67% | 1013.5 hPa | 0 mm | 0 m/s | - | - |
| 1777969320 | 16.67° C | 68% | 1013.4 hPa | 0 mm | 0.45 m/s, 183° | - | - |
| 1777969016 | 16.67° C | 67% | 1013.5 hPa | 0 mm | 0 m/s | - | - |
| 1777968714 | 16.67° C | 67% | 1013.7 hPa | 0 mm | 0.45 m/s, 321° | - | - |
| 1777968411 | 17.22° C | 67% | 1013.7 hPa | 0 mm | 0.45 m/s, 43° | - | - |
| 1777968106 | 17.22° C | 67% | 1013.6 hPa | 0 mm | 1.34 m/s, 116° | - | - |
| 1777967802 | 17.22° C | 66% | 1013.8 hPa | 0 mm | 0 m/s | - | - |
| 1777967499 | 17.22° C | 67% | 1013.7 hPa | 0 mm | 0.45 m/s, 57° | - | - |
| 1777967196 | 16.67° C | 68% | 1013.7 hPa | 0 mm | 0.45 m/s, 87° | - | - |
| 1777966893 | 16.67° C | 68% | 1013.7 hPa | 0 mm | 0.89 m/s, 3° | - | - |
| 1777966591 | 16.67° C | 68% | 1013.5 hPa | 0 mm | 0 m/s | - | - |
| 1777966289 | 17.22° C | 68% | 1013.6 hPa | 0 mm | 0.89 m/s, 76° | - | - |
| 1777965984 | 17.22° C | 67% | 1013.4 hPa | 0 mm | 0.45 m/s, 23° | - | - |
| 1777965681 | 17.22° C | 67% | 1013.4 hPa | 0 mm | 1.79 m/s, 81° | - | - |
| 1777965377 | 17.22° C | 67% | 1013.3 hPa | 0 mm | 0 m/s | - | - |
| 1777965075 | 17.22° C | 66% | 1013.5 hPa | 0 mm | 0.89 m/s, 332° | - | - |
| 1777964772 | 17.22° C | 66% | 1013.1 hPa | 0 mm | 0.89 m/s, 332° | - | - |
| 1777964468 | 17.22° C | 66% | 1013.1 hPa | 0 mm | 1.34 m/s, 198° | - | - |
| 1777964164 | 17.22° C | 66% | 1013.3 hPa | 0 mm | 0.45 m/s, 312° | - | - |
| 1777962345 | 17.78° C | 64% | 1013.3 hPa | 0 mm | 1.79 m/s, 74° | - | - |
* Rain latest hour (hover to see other rain measurements)
** Current wind speed in m/s (hover to see current wind gust speed)